Location: Newark
(35.7219°N, 0.3536°E)
Time: 11:50:41
(UTC+00:00)

Hubble Space Telescope - Visible Passes

Search period start: 22 July 2019 00:00
Search period end: 01 August 2019 00:00
Orbit: 536 x 540 km, 28.5° (Epoch: 22 July)

Date Brightness Start Highest point End Pass type
(mag) Time Alt. Az. Time Alt. Az. Time Alt. Az.
26 Jul 3.3 04:07:37 10° SSE 04:08:04 10° SSE 04:08:32 10° SSE visible
27 Jul 3.0 03:55:36 10° S 03:57:25 13° SSE 03:59:14 10° SE visible
28 Jul 2.8 03:45:23 13° S 03:46:46 15° SSE 03:49:11 10° SE visible
29 Jul 2.5 03:35:21 17° S 03:36:08 18° SSE 03:38:56 10° ESE visible
30 Jul 2.4 03:25:19 20° S 03:25:29 20° SSE 03:28:34 10° ESE visible
31 Jul 2.3 03:15:18 22° SSE 03:15:18 22° SSE 03:18:09 10° ESE visible
